Погода в Нарве

Эстония     59°22′33″N   28°11′43″E
темп.,
°C
ветер,
м/с
пор.,
м/с
влажн.,
%
обл.,
%
осадки,
мм/ч
давл.,
гПа
погр.,
м
18 апреля, вс
вс1800:00+6всв4116821 0.0 1029290
03:00+4св39815 0.0 1029210
06:00+3св39900 0.0 1029219
09:00+8всв48620 0.0 1029493
12:00+13всв46410 0.0 10281184
15:00+14св56360 0.0 10281511
18:00+13св56454 0.0 10281405
21:00+8св410625 0.0 1029399
19 апреля, пн
пн1900:00+6всв39725 0.0 1029250
03:00+5всв27835 0.0 1029131
06:00+4всв268694 0.0 1029123
09:00+9в366651 0.0 1030451
12:00+12всв454951 0.0 10291314
15:00+13всв45406 0.0 10281542
18:00+13всв454310 0.0 10271508
21:00+8всв49575 0.0 1027348
20 апреля, вт
вт2000:00+5всв28664 0.0 1026189
03:00+4в38710 0.0 1026180
06:00+2в39695 0.0 1025192
09:00+7вюв47500 0.0 1024723
12:00+10в573443 0.0 10221700
15:00+10вюв4534100 0.0 10201927
18:00+8юв354988 0.0 10191405
21:00+5вюв367990 0.0 1019643
21 апреля, ср
ср2100:00+4в2584100 0.0 1017285
03:00+5всв2589100 0.1 1015299
06:00+5св2490100 0.0 1012257
09:00+6ссв3580100 0.0 1010544
12:00+6ссв3577100 0.0 1007706
15:00+5св3492100 0.6 1006770
18:00+3ссв2596100 0.6 1006395
21:00+3ссз2388100 0.6 1006536
22 апреля, чт
чт2200:00+3сз259397 0.0 1007310
03:00+3з129199 0.0 1008171
06:00+3юз259394 0.0 1009225
09:00+5зюз2481100 0.0 1012331
12:00+9з235840 0.0 10131293
15:00+11з245195 0.1 10151351
18:00+10зюз236182 0.1 1017740
21:00+6сз118113 0.1 101810